Location: Ailingen
(47.6833°N, 9.5000°E)
Time: 04:30:30
(UTC+00:00)

Cosmos 2278 Rocket - Pass Details

Date: 18 November 2025
Orbit: 841 x 843 km, 71.0° (Epoch: 04 December)

Event Time Altitude Azimuth Distance (km) Brightness Sun altitude
Rises 17:35:27 0° 219° (SW) 3,387 6.1 -18.9°
Reaches altitude 10° 17:37:56 10° 223° (SW) 2,456 5.3 -19.3°
Maximum altitude 17:43:28 57° 302° (WNW) 988 2.7 -20.2°
Enters shadow 17:48:31 13° 20° (NNE) 2,274 4.2 -21.1°
